Stations météo

réclame
Mon MeteoGroup
Abbeville, France (7005): Température de l'air & dewpoint: 12.06.2018 13:00:00 - 18.06.2018 13:00:00 (CEST)Abbeville, France (7005): Température de l'air 5cm: 12.06.2018 13:00:00 - 18.06.2018 13:00:00 (CEST)Abbeville, France (7005): Température de l'air -20cm & Température de l'air -100cm: 12.06.2018 13:00:00 - 18.06.2018 13:00:00 (CEST)Abbeville, France (7005): Vitesse du vent & gusts: 12.06.2018 13:00:00 - 18.06.2018 13:00:00 (CEST)Abbeville, France (7005): Direction du vent: 12.06.2018 13:00:00 - 18.06.2018 13:00:00 (CEST)Abbeville, France (7005): reduced air pressure: 12.06.2018 13:00:00 - 18.06.2018 13:00:00 (CEST)Abbeville, France (7005): visibility: 12.06.2018 13:00:00 - 18.06.2018 13:00:00 (CEST)Abbeville, France (7005): Ensoleillement: 12.06.2018 13:00:00 - 18.06.2018 13:00:00 (CEST)Abbeville, France (7005): Quantités de précipitations: 12.06.2018 13:00:00 - 18.06.2018 13:00:00 (CEST)
Date & Time tt [°C] td [°C] tt 5cm [°C] tt -20cm [°C] tt -100cm [°C] ff [km/h] ff [knt] fx [km/h] fx [knt] dd ppp [hPa] vv [km] sd [min] rr [mm]
18.06.2018 13:00:00 15,5 13,0 16,3 17,5 15,5 18 10 38 21 W 1022,8 15 0 0,0
18.06.2018 12:00:00 16,1 12,5 16,1 17,5 15,5 25 13 46 25 W 1022,3 20 9 0,0
18.06.2018 11:00:00 16,8 12,7 16,2 17,5 15,5 28 15 44 24 W 1022,0 20 5 0,0
18.06.2018 10:00:00 15,1 13,5 14,8 17,5 15,5 22 12 38 20 WSW 1021,8 15 0 0,0
18.06.2018 09:00:00 14,9 13,9 14,6 17,6 15,5 21 11 38 21 W 1021,2 11 0 0,0
18.06.2018 08:00:00 15,6 14,5 15,3 17,7 15,5 18 10 29 16 W 1020,5 20 0 0,0
18.06.2018 07:00:00 15,7 14,2 15,5 17,7 15,5 12 6 21 12 WSW 1020,1 9 0 0,0
18.06.2018 06:00:00 15,6 14,0 15,2 17,8 15,5 10 5 19 10 SW 1020,0 20 0 0,0
18.06.2018 05:00:00 15,5 13,9 15,1 17,9 15,5 9 5 20 11 SSW 1019,7 20 0 0,0
18.06.2018 04:00:00 15,7 13,5 15,3 18,0 15,5 8 4 19 10 SW 1019,7 20 0 0,0
18.06.2018 03:00:00 15,6 12,7 15,0 18,1 15,5 6 3 11 6 SSW 1019,8 20 0 0,0
18.06.2018 02:00:00 15,5 12,3 15,0 18,2 15,5 4 2 9 5 SW 1020,1 20 0 0,0
18.06.2018 01:00:00 15,5 11,7 14,8 18,3 15,5 5 3 14 7 SSW 1020,2 20 0 0,0
18.06.2018 00:00:00 15,5 11,1 14,8 18,4 15,5 5 3 9 5 SSE 1020,5 20 0 0,0
17.06.2018 23:00:00 15,4 11,2 14,6 18,5 15,5 3 2 6 4 S 1020,5 19 0 0,0
17.06.2018 22:00:00 15,0 11,2 14,6 18,6 15,5 5 3 18 10 W 1020,3 20 0 0,0
17.06.2018 21:00:00 15,6 10,6 15,3 18,7 15,5 10 6 23 13 W 1020,5 20 0 0,0
17.06.2018 20:00:00 16,2 10,3 16,5 18,6 15,5 13 7 29 15 W 1020,2 20 0 0,0
17.06.2018 19:00:00 16,5 10,6 17,3 18,5 15,5 19 10 29 16 W 1020,2 20 16 0,0
17.06.2018 18:00:00 17,5 10,6 19,9 18,3 15,5 21 11 34 18 W 1020,1 20 41 0,0
17.06.2018 17:00:00 17,9 10,0 21,3 18,0 15,5 24 13 41 22 W 1020,0 20 60 0,0
17.06.2018 16:00:00 17,8 9,9 19,8 17,8 15,5 24 13 40 22 W 1019,9 20 28 0,0
17.06.2018 15:00:00 18,4 10,7 20,7 17,5 15,5 25 14 43 23 W 1019,8 20 46 0,0
17.06.2018 14:00:00 17,5 9,6 18,5 17,3 15,5 27 14 44 24 W 1019,7 20 38 0,0
17.06.2018 13:00:00 17,1 10,0 17,2 17,2 15,5 23 13 41 22 W 1019,6 20 29 0,0
17.06.2018 12:00:00 15,7 9,8 15,3 17,1 15,5 23 12 37 20 W 1019,5 20 6 0,0
17.06.2018 11:00:00 14,8 10,2 15,1 17,2 15,5 22 12 41 22 W 1019,5 20 0 0,0
17.06.2018 10:00:00 14,9 10,5 14,8 17,2 15,5 19 11 30 16 W 1019,1 20 0 0,0
17.06.2018 09:00:00 14,4 11,0 13,9 17,3 15,5 13 7 24 13 WSW 1018,9 20 0 0,0
17.06.2018 08:00:00 13,6 10,4 13,0 17,4 15,5 10 5 21 12 SW 1018,3 20 0 0,0
17.06.2018 07:00:00 13,0 9,8 12,6 17,5 15,5 10 6 27 15 SW 1017,9 20 0 0,0
17.06.2018 06:00:00 12,7 9,9 11,9 17,7 15,5 7 4 14 8 SW 1017,8 20 0 0,0
17.06.2018 05:00:00 12,9 9,9 12,2 17,8 15,5 10 5 24 13 SW 1017,9 20 0 0,0
17.06.2018 04:00:00 13,3 9,4 12,4 18,0 15,5 14 8 29 16 WSW 1017,9 20 0 0,0
17.06.2018 03:00:00 13,6 10,0 12,8 18,2 15,5 17 9 40 22 W 1017,7 20 0 0,0
17.06.2018 02:00:00 14,1 11,1 13,4 18,4 15,5 22 12 37 20 W 1017,6 20 0 0,0
17.06.2018 01:00:00 14,5 11,6 13,7 18,5 15,5 16 9 29 16 W 1017,3 20 0 0,0
17.06.2018 00:00:00 14,6 11,9 13,7 18,7 15,5 12 6 24 13 W 1017,4 20 0 0,0
16.06.2018 23:00:00 15,3 11,3 14,5 18,8 15,5 14 8 25 14 W 1017,3 20 0 0,0
16.06.2018 22:00:00 15,7 10,9 15,3 18,9 15,5 12 7 28 15 W 1017,1 20 0 0,0
16.06.2018 21:00:00 16,3 9,7 16,2 19,0 15,5 17 9 31 17 W 1017,0 20 0 0,0
16.06.2018 20:00:00 17,1 9,8 17,2 18,9 15,5 16 8 29 16 W 1016,9 20 22 0,0
16.06.2018 19:00:00 18,3 10,1 19,3 18,8 15,5 21 11 36 19 W 1016,7 20 48 0,0
16.06.2018 18:00:00 18,1 9,4 19,7 18,7 15,5 23 12 38 20 W 1016,8 20 47 0,0
16.06.2018 17:00:00 17,7 9,8 19,5 18,4 15,5 22 12 41 22 W 1016,9 20 14 0,0
16.06.2018 16:00:00 18,4 9,2 20,7 18,1 15,5 27 15 42 23 W 1016,9 20 50 0,0
16.06.2018 15:00:00 18,6 10,2 20,1 17,8 15,5 23 13 37 20 W 1016,7 20 46 0,0
16.06.2018 14:00:00 18,1 10,5 19,2 17,5 15,5 26 14 40 22 W 1016,7 20 49 0,0
16.06.2018 13:00:00 17,7 10,1 19,0 17,2 15,5 24 13 37 20 W 1016,8 20 36 0,0
16.06.2018 12:00:00 17,2 10,1 18,0 17,1 15,5 18 10 27 15 W 1016,8 20 33 0,0
16.06.2018 11:00:00 16,9 11,6 17,1 17,0 15,5 18 10 29 16 W 1017,0 20 35 0,0
16.06.2018 10:00:00 15,7 11,9 15,4 17,0 15,5 13 7 24 13 WSW 1017,0 19 21 0,0
16.06.2018 09:00:00 13,9 11,9 13,1 17,1 15,5 9 5 22 12 WSW 1017,0 20 0 0,0
16.06.2018 08:00:00 12,5 11,4 11,7 17,2 15,5 12 7 21 11 W 1016,9 16 0 0,0
16.06.2018 07:00:00 11,4 10,5 10,0 17,4 15,5 9 5 14 8 WSW 1016,6 13 0 0,0
16.06.2018 06:00:00 10,7 9,6 9,3 17,6 15,5 4 2 9 5 S 1016,4 15 0 0,0
16.06.2018 05:00:00 10,4 9,3 9,0 17,8 15,5 5 3 11 6 SW 1016,8 16 0 0,0
16.06.2018 04:00:00 10,4 9,0 9,2 18,1 15,5 5 3 10 5 SSW 1017,0 19 0 0,0
16.06.2018 03:00:00 10,5 9,1 8,6 18,3 15,5 4 2 9 5 S 1017,1 20 0 0,0
16.06.2018 02:00:00 10,5 8,8 8,9 18,6 15,5 4 2 8 4 SSW 1017,7 20 0 0,0
16.06.2018 01:00:00 11,1 9,4 9,9 18,8 15,5 7 4 14 8 WSW 1017,7 20 0 0,0
16.06.2018 00:00:00 11,7 9,9 10,6 19,1 15,5 8 4 15 8 W 1017,7 18 0 0,0
15.06.2018 23:00:00 12,3 10,0 10,8 19,3 15,5 10 6 14 8 W 1017,9 20 0 0,0
15.06.2018 22:00:00 13,3 9,5 11,8 19,5 15,5 6 3 16 9 W 1017,6 20 0 0,0
15.06.2018 21:00:00 14,6 9,2 13,9 19,5 15,5 10 6 21 11 W 1017,8 20 26 0,0
15.06.2018 20:00:00 16,3 9,5 17,9 19,5 15,5 15 8 25 14 W 1017,7 20 60 0,0
15.06.2018 19:00:00 17,2 10,1 19,8 19,3 15,5 16 8 31 17 W 1017,8 20 60 0,0
15.06.2018 18:00:00 17,7 10,1 22,1 19,1 15,5 20 11 31 17 WNW 1017,9 20 60 0,0
15.06.2018 17:00:00 18,3 10,1 22,8 18,7 15,5 18 10 32 17 W 1017,7 20 60 0,0
15.06.2018 16:00:00 19,3 12,3 24,7 18,2 15,5 16 9 28 15 WNW 1017,7 19 60 0,0
15.06.2018 15:00:00 18,7 12,0 24,9 17,8 15,5 19 10 31 17 WNW 1017,9 20 60 0,0
15.06.2018 14:00:00 19,1 12,1 24,9 17,3 15,5 18 10 29 16 WNW 1017,8 20 60 0,0
15.06.2018 13:00:00 18,8 12,1 23,3 17,0 15,5 16 9 29 16 WNW 1017,6 20 60 0,0
15.06.2018 12:00:00 18,6 13,2 22,2 16,6 15,5 16 9 26 14 W 1017,6 18 60 0,0
15.06.2018 11:00:00 18,0 13,5 18,4 16,5 15,5 13 7 23 12 W 1017,4 20 53 0,0
15.06.2018 10:00:00 16,3 13,0 18,7 16,4 15,5 10 5 23 13 WNW 1017,3 19 47 0,0
15.06.2018 09:00:00 15,5 12,6 18,0 16,5 15,5 10 6 16 8 W 1017,1 20 60 0,0
15.06.2018 08:00:00 13,3 11,5 14,3 16,6 15,5 5 3 14 8 SW 1016,9 17 60 0,0
15.06.2018 07:00:00 11,4 10,3 9,3 16,8 15,5 6 3 11 6 SW 1016,7 18 48 0,0
15.06.2018 06:00:00 10,4 9,3 8,9 17,0 15,5 5 3 10 5 SSW 1016,7 16 0 0,2
15.06.2018 05:00:00 10,5 9,3 8,8 17,1 15,5 5 3 11 6 SW 1016,5 18 0 0,0
15.06.2018 04:00:00 10,9 9,5 9,4 17,3 15,5 8 4 14 8 WSW 1016,5 20 0 0,0
15.06.2018 03:00:00 11,4 9,6 10,3 17,5 15,5 9 5 17 9 WSW 1016,7 20 0 0,0
15.06.2018 02:00:00 11,8 9,7 10,3 17,6 15,5 5 3 13 7 SSW 1016,9 20 0 0,0
15.06.2018 01:00:00 13,3 10,8 12,2 17,8 15,5 5 3 16 9 SW 1017,1 18 0 0,0
15.06.2018 00:00:00 14,0 11,2 13,6 17,9 15,5 9 5 17 9 WSW 1017,4 20 0 0,0
14.06.2018 23:00:00 14,3 11,3 13,3 18,0 15,5 8 4 15 8 WSW 1017,4 20 0 0,0
14.06.2018 22:00:00 14,1 11,1 13,0 18,1 15,5 9 5 27 15 WSW 1016,7 20 4 0,0
14.06.2018 21:00:00 15,9 11,3 16,1 18,1 15,5 18 10 35 19 W 1016,2 20 56 0,0
14.06.2018 20:00:00 17,0 12,1 18,1 18,1 15,5 23 12 41 22 W 1015,5 19 60 0,0
14.06.2018 19:00:00 17,4 13,9 15,7 18,1 15,5 21 12 37 20 W 1015,3 20 23 0,2
14.06.2018 18:00:00 16,4 15,3 16,0 18,1 15,5 14 8 27 14 WSW 1015,1 6 0 0,2
14.06.2018 17:00:00 16,1 14,5 15,8 18,0 15,5 11 6 29 16 SW 1015,0 7 0 0,0
14.06.2018 16:00:00 17,2 13,7 17,2 18,0 15,5 18 10 33 18 WSW 1015,0 7 0 0,0
14.06.2018 15:00:00 17,7 12,4 17,5 17,8 15,5 18 10 31 17 WSW 1015,0 20 0 0,0
14.06.2018 14:00:00 19,1 12,6 21,2 17,6 15,5 12 6 28 15 SW 1014,6 20 0 0,0
14.06.2018 13:00:00 18,6 13,2 20,8 17,4 15,5 11 6 32 17 SSW 1014,8 20 0 0,0
14.06.2018 12:00:00 17,6 12,1 17,7 17,3 15,4 11 6 24 13 SSW 1015,0 19 1 0,0
14.06.2018 11:00:00 16,2 12,0 16,2 17,3 15,5 10 6 26 14 SSW 1015,1 20 0 0,0
14.06.2018 10:00:00 16,3 10,6 16,2 17,3 15,5 13 7 23 12 SW 1015,2 20 0 0,0
14.06.2018 09:00:00 15,7 10,7 16,1 17,3 15,5 12 7 23 12 SW 1015,2 20 0 0,0
14.06.2018 08:00:00 14,3 10,5 13,9 17,4 15,5 6 3 16 9 S 1015,1 20 14 0,0
14.06.2018 07:00:00 12,8 10,0 10,4 17,7 15,5 8 5 14 8 SSE 1015,2 20 48 0,0
14.06.2018 06:00:00 11,1 9,0 10,0 17,8 15,5 8 4 14 7 SSE 1015,6 20 0 0,0
14.06.2018 05:00:00 11,1 8,8 9,8 18,1 15,5 9 5 13 7 SSE 1016,0 20 0 0,0
14.06.2018 04:00:00 11,0 8,2 9,7 18,3 15,5 8 5 11 6 SE 1016,5 20 0 0,0
14.06.2018 03:00:00 11,1 7,8 9,5 18,5 15,5 6 4 10 5 SE 1017,0 20 0 0,0
14.06.2018 02:00:00 11,4 8,3 10,1 18,8 15,5 5 3 9 5 SSE 1017,4 20 0 0,0
14.06.2018 01:00:00 12,2 8,7 10,0 19,0 15,5 6 3 8 4 S 1017,8 20 0 0,0
14.06.2018 00:00:00 11,8 8,3 8,3 19,3 15,5 2 1 6 3 S 1018,3 20 0 0,0
13.06.2018 23:00:00 12,1 8,2 8,3 19,5 15,4 3 1 8 4 WSW 1018,6 20 0 0,0
13.06.2018 22:00:00 12,4 8,7 10,5 19,6 15,4 8 4 13 7 WNW 1018,5 20 12 0,0
13.06.2018 21:00:00 15,6 8,1 16,1 19,7 15,5 10 5 14 7 W 1018,4 20 55 0,0
13.06.2018 20:00:00 16,9 8,3 20,0 19,7 15,5 9 5 22 12 NW 1018,4 20 60 0,0
13.06.2018 19:00:00 17,2 9,4 21,5 19,5 15,5 15 8 23 13 WNW 1018,5 20 60 0,0
13.06.2018 18:00:00 17,3 9,2 21,7 19,3 15,5 15 8 26 14 WNW 1018,5 20 60 0,0
13.06.2018 17:00:00 18,0 9,9 23,3 19,0 15,4 14 8 26 14 W 1018,8 20 60 0,0
13.06.2018 16:00:00 17,7 9,1 21,5 18,7 15,4 10 5 29 15 NW 1019,1 20 54 0,0
13.06.2018 15:00:00 17,0 9,2 19,3 18,4 15,4 19 11 31 17 WNW 1019,4 20 14 0,0
13.06.2018 14:00:00 17,3 9,2 19,5 18,0 15,4 13 7 27 14 W 1019,2 20 16 0,0
13.06.2018 13:00:00 18,2 8,2 21,2 17,8 15,4 9 5 23 12 NNE 1019,3 20 57 0,0
13.06.2018 12:00:00 15,9 8,4 18,9 17,6 15,5 11 6 26 14 N 1019,4 20 12 0,0
13.06.2018 11:00:00 15,5 8,2 17,8 17,5 15,4 16 9 24 13 N 1019,5 20 3 0,0
13.06.2018 10:00:00 15,5 10,3 17,8 17,5 15,4 14 8 25 13 N 1019,2 20 48 0,0
13.06.2018 09:00:00 14,1 11,8 12,8 17,5 15,4 12 7 19 10 N 1019,1 20 15 0,0
13.06.2018 08:00:00 11,9 11,0 11,3 17,7 15,4 10 5 14 8 NNW 1019,1 20 0 0,0
13.06.2018 07:00:00 11,0 10,1 10,4 17,8 15,4 9 5 13 7 NNW 1018,8 20 0 0,0
13.06.2018 06:00:00 10,5 9,7 9,0 18,0 15,4 8 4 11 6 NNW 1018,7 20 0 0,0
13.06.2018 05:00:00 9,5 8,7 7,7 18,2 15,4 9 5 15 8 NNW 1018,8 18 0 0,0
13.06.2018 04:00:00 10,0 9,2 6,9 18,5 15,4 9 5 13 7 NW 1018,8 20 0 0,0
13.06.2018 03:00:00 8,8 8,0 7,0 18,7 15,4 10 5 15 8 NW 1018,7 14 0 0,0
13.06.2018 02:00:00 9,2 8,3 5,3 19,0 15,4 10 6 16 8 NW 1018,7 11 0 0,0
13.06.2018 01:00:00 9,4 7,8 6,7 19,3 15,4 9 5 11 6 NNW 1018,6 16 0 0,0
13.06.2018 00:00:00 10,9 8,6 9,0 19,6 15,4 8 5 16 9 N 1018,2 20 0 0,0
12.06.2018 23:00:00 11,9 8,6 10,3 19,8 15,4 11 6 24 13 N 1018,1 20 0 0,0
12.06.2018 22:00:00 13,0 8,5 11,6 20,0 15,4 13 7 28 15 NNE 1017,5 20 32 0,0
12.06.2018 21:00:00 14,7 9,1 14,7 20,1 15,4 15 8 35 19 N 1016,6 20 40 0,0
12.06.2018 20:00:00 16,0 10,7 16,4 20,1 15,4 20 11 36 19 NNE 1016,0 20 25 0,0
12.06.2018 19:00:00 16,0 11,4 17,0 20,1 15,4 23 13 37 20 NNE 1015,4 20 7 0,0
12.06.2018 18:00:00 17,1 12,0 19,8 19,9 15,4 27 14 41 22 N 1015,3 20 32 0,0
12.06.2018 17:00:00 18,9 13,1 23,1 19,6 15,4 24 13 39 21 N 1015,3 19 50 0,0
12.06.2018 16:00:00 19,5 13,2 23,8 19,2 15,4 26 14 35 19 N 1014,7 20 47 0,0
12.06.2018 15:00:00 20,2 14,1 22,1 18,8 15,4 19 10 31 17 N 1014,1 18 41 0,0
12.06.2018 14:00:00 20,7 14,6 25,4 18,5 15,4 16 9 29 16 NNE 1013,8 18 49 0,0
12.06.2018 13:00:00 19,7 13,8 21,2 18,4 15,4 19 10 32 17 NNE 1013,8 18 35 0,0

tt = Température de l'air
td = dewpoint
tt 5cm = Température de l'air 5cm
tt -20cm = Température de l'air -20cm
tt -100cm = Température de l'air -100cm
ff = Vitesse du vent
fx = gusts
dd = Direction du vent
ppp = reduced air pressure
vv = visibility
sd = Ensoleillement
rr = Quantités de précipitations

stations d'obs. à proximité